Flag for Germany Weather for the Past 2 Weeks in Mühlhausen/Thüringen, Thuringia, Germany

Now
50 °F

Broken clouds.


Feels Like: 44 °F
Forecast: 42 / 61 °F
Wind: 16 mph from Northeast

Location: Erfurt-Bindersleben

Current Time: Apr 30, 2016 at 9:52:17 PM

Latest Report: Apr 30, 2016 at 9:20 PM


Visibility: N/A

Pressure: 30.04 "Hg

Humidity: 71%

Dew Point: 41 °F

Location of Mühlhausen/ThüringenLocation

Historic Weather in Mühlhausen/Thüringen — Graph

°F

Mühlhausen/Thüringen Temperature Yesterday

Maximum temperature yesterday: 55 °F (at 4:20 PM)
Minimum temperature yesterday: 32 °F (at 5:20 AM)
Average temperature yesterday: 45 °F

High & Low Weather Summary for the Past Weeks

 TemperatureHumidityPressure
High61 °F (Apr 21, 3:50 PM)100% (Apr 17, 2:50 AM)30.42 "Hg (Apr 17, 2:50 AM)
Low28 °F (Apr 24, 4:50 AM)41% (Apr 18, 5:20 PM)29.47 "Hg (Apr 26, 1:50 AM)
Average44 °F71%29.93 "Hg
* Reported Apr 15 8:20 PM — Apr 30 8:20 PM, Mühlhausen/Thüringen, Weather by CustomWeather, © 2016

Note: Actual official high and low records may vary slightly from our data, if they occured in-between our weather recording intervals... More about our weather records

Advertising

Mühlhausen/Thüringen Weather History for the Previous 24 Hours

Scroll right to see more
 ConditionsComfort  
Time TempWeatherWind HumidityBarometerVisibility
8:20 PM
Sat, Apr 30
52 °FPartly sunny.16 mph67%30.01 "HgN/A
7:50 PM55 °FPartly sunny.15 mph59%30.01 "HgN/A
7:20 PM57 °FScattered showers. Scattered clouds.9 mph55%30.01 "HgN/A
6:50 PM57 °FScattered clouds.9 mph55%30.01 "HgN/A
6:20 PM59 °FPartly sunny.10 mph51%30.01 "HgN/A
5:50 PM61 °FScattered clouds.7 mph45%30.01 "HgN/A
5:20 PM61 °FPassing clouds.8 mph45%30.01 "HgN/A
4:50 PM59 °FScattered clouds.6 mph51%30.01 "HgN/A
4:20 PM59 °FPartly sunny.5 mph48%30.01 "HgN/A
3:50 PM59 °FPartly sunny.5 mph48%30.01 "HgN/A
3:20 PM57 °FPartly sunny.8 mph48%30.01 "HgN/A
2:50 PM57 °FBroken clouds.8 mph48%30.01 "HgN/A
2:20 PM59 °FBroken clouds.7 mph45%30.01 "HgN/A
1:50 PM57 °FBroken clouds.6 mph44%30.01 "HgN/A
1:20 PM57 °FPartly sunny.7 mph48%30.01 "HgN/A
12:50 PM57 °FPassing clouds.7 mph48%30.01 "HgN/A
12:20 PM55 °FPassing clouds.6 mph55%30.01 "HgN/A
11:50 AM55 °FPassing clouds.3 mph59%30.04 "HgN/A
11:20 AM54 °FPassing clouds.3 mph63%30.04 "HgN/A
10:20 AM52 °FSunny.No wind54%30.04 "Hg10 mi
9:50 AM50 °FPassing clouds.6 mph58%30.04 "HgN/A
9:20 AM48 °FPassing clouds.5 mph62%30.04 "HgN/A
8:50 AM45 °FSunny.6 mph71%30.04 "Hg10 mi
8:20 AM43 °FSunny.8 mph71%30.04 "Hg10 mi
7:50 AM43 °FSunny.7 mph71%30.04 "Hg10 mi
7:20 AM41 °FSunny.7 mph76%30.04 "Hg10 mi
6:50 AM41 °FSunny.6 mph76%30.04 "Hg10 mi
6:20 AM39 °FClear.6 mph75%30.04 "Hg10 mi
5:50 AM39 °FClear.5 mph75%30.04 "Hg10 mi
5:20 AM41 °FClear.8 mph70%30.04 "Hg10 mi
4:20 AM41 °FClear.9 mph70%30.04 "Hg10 mi
3:50 AM41 °FClear.9 mph70%30.04 "Hg10 mi
3:20 AM41 °FClear.8 mph70%30.04 "Hg10 mi
2:50 AM39 °FClear.9 mph81%30.04 "Hg10 mi
2:20 AM41 °FClear.9 mph76%30.04 "Hg10 mi
1:50 AM41 °FClear.8 mph76%30.04 "Hg10 mi
1:20 AM43 °FClear.9 mph71%30.04 "Hg10 mi
12:50 AM43 °FClear.8 mph71%30.04 "Hg10 mi
12:20 AM45 °FClear.7 mph66%30.04 "Hg10 mi
11:50 PM
Fri, Apr 29
45 °FClear.6 mph61%30.04 "Hg10 mi
11:20 PM45 °FClear.6 mph57%30.04 "Hg10 mi
10:50 PM45 °FClear.5 mph61%30.04 "Hg10 mi
10:20 PM46 °FClear.3 mph53%30.04 "Hg10 mi
9:50 PM48 °FClear.5 mph54%30.04 "Hg10 mi
9:20 PM48 °FSunny.5 mph50%30.04 "Hg10 mi
Weather by CustomWeather, © 2016

See weather overviewHow to use our weather pages